User: anonymous   Login
Location: Boda
(47.1872°N, 9.5454°E)
Time: 08:54:32
(UTC+00:00)
Language:

Cosmos 405 - Orbit

View from above orbital plane
View from above orbital plane
View from above satellite
View from above satellite

Ground track
Ground track

The orbit data is extracted from the following two-line orbital elements,

1 05117U 71028A   21216.81232146  .00002542  00000-0  67798-4 0  9995
2 05117  81.2625   9.2507 0009034 337.8533 145.5621 15.37702447744112
Epoch (UTC): 04 August 2021 19:29:44
Eccentricity: 0.0009034
inclination: 81.2625°
perigee height: 447 km
apogee height: 459 km
right ascension of ascending node: 9.2507°
argument of perigee: 337.8533°
revolutions per day: 15.37702447
mean anomaly at epoch: 145.5621°
orbit number at epoch: 74411

The dashed part of the orbit path shows where the satellite is in the earth's shadow,  

DLR